UAL1221 PHNL-KLAX

Flight info

Callsign UAL1221
Flight time 4h 57m
Altitude 33000
Route MKK5 KOLEA CLUTS R465 CIVIT R585 GITLE/N0459F350 ADUMM GALIP R585 AUDIA SNAXX RYDRR2
Aircraft B753/M-SDE3FGHIM3RWXY/LB1

Departure

Time 2026-04-25 18:27
Airport Daniel K. Inouye International Airport (PHNL)

Arrival

Time 2026-04-25 23:24
Airport Los Angeles International Airport (KLAX)
Time Latitude Longitude Altitude Speed Heading
2026-04-25 17:49 21.32879 -157.91576 33 ft 0 kts
2026-04-25 18:04 21.32866 -157.91576 32 ft 2 kts
2026-04-25 18:04 21.32850 -157.91576 32 ft 2 kts
2026-04-25 18:05 21.32836 -157.91576 31 ft 2 kts
2026-04-25 18:05 21.32821 -157.91574 31 ft 2 kts 332°
2026-04-25 18:05 21.32809 -157.91565 31 ft 2 kts 314°
2026-04-25 18:05 21.32806 -157.91560 31 ft 0 kts 315°
2026-04-25 18:06 21.32807 -157.91562 31 ft 0 kts 315°
2026-04-25 18:10 21.32808 -157.91562 31 ft 1 kts 315°
2026-04-25 18:10 21.32812 -157.91585 31 ft 5 kts 248°
2026-04-25 18:10 21.32782 -157.91647 29 ft 13 kts 248°
2026-04-25 18:10 21.32770 -157.91783 29 ft 21 kts 270°
2026-04-25 18:11 21.32773 -157.91969 31 ft 27 kts 271°
2026-04-25 18:11 21.32774 -157.92149 33 ft 14 kts 270°
2026-04-25 18:11 21.32772 -157.92192 34 ft 15 kts 268°
2026-04-25 18:11 21.32771 -157.92297 36 ft 12 kts 270°
2026-04-25 18:12 21.32771 -157.92389 36 ft 13 kts 270°
2026-04-25 18:12 21.32772 -157.92496 36 ft 15 kts 270°
2026-04-25 18:12 21.32773 -157.92627 34 ft 19 kts 271°
2026-04-25 18:12 21.32752 -157.92778 32 ft 22 kts 251°
2026-04-25 18:13 21.32743 -157.92952 30 ft 25 kts 270°
2026-04-25 18:13 21.32743 -157.93153 28 ft 28 kts 269°
2026-04-25 18:13 21.32741 -157.93368 28 ft 29 kts 270°
2026-04-25 18:14 21.32739 -157.93813 29 ft 28 kts 270°
2026-04-25 18:14 21.32741 -157.93988 29 ft 14 kts 259°
2026-04-25 18:14 21.32687 -157.94083 28 ft 13 kts 215°
2026-04-25 18:14 21.32630 -157.94119 28 ft 1 kts 208°
2026-04-25 18:15 21.32629 -157.94121 28 ft 0 kts 208°
2026-04-25 18:17 21.32605 -157.94135 28 ft 12 kts 208°
2026-04-25 18:17 21.32479 -157.94212 28 ft 27 kts 211°
2026-04-25 18:17 21.32297 -157.94321 28 ft 29 kts 208°
2026-04-25 18:18 21.32123 -157.94424 28 ft 27 kts 210°
2026-04-25 18:18 21.31964 -157.94519 27 ft 24 kts 208°
2026-04-25 18:18 21.31818 -157.94604 26 ft 23 kts 208°
2026-04-25 18:18 21.31673 -157.94656 24 ft 21 kts 181°
2026-04-25 18:19 21.31525 -157.94640 20 ft 21 kts 173°
2026-04-25 18:19 21.31381 -157.94620 16 ft 20 kts 174°
2026-04-25 18:19 21.31240 -157.94603 14 ft 19 kts 173°
2026-04-25 18:19 21.31109 -157.94586 13 ft 18 kts 173°
2026-04-25 18:20 21.30988 -157.94571 11 ft 16 kts 173°
2026-04-25 18:20 21.30882 -157.94568 11 ft 14 kts 181°
2026-04-25 18:20 21.30801 -157.94571 11 ft 1 kts 182°
2026-04-25 18:20 21.30800 -157.94571 11 ft 0 kts 182°
2026-04-25 18:21 21.30789 -157.94571 11 ft 5 kts 182°
2026-04-25 18:21 21.30711 -157.94572 11 ft 14 kts 181°
2026-04-25 18:22 21.30679 -157.94537 11 ft 4 kts 88°
2026-04-25 18:22 21.30680 -157.94527 11 ft 1 kts 89°
2026-04-25 18:22 21.30680 -157.94519 11 ft 0 kts 89°
2026-04-25 18:25 21.30680 -157.94511 11 ft 8 kts 89°
2026-04-25 18:25 21.30685 -157.94296 11 ft 50 kts 89°
2026-04-25 18:26 21.30682 -157.93721 11 ft 103 kts 90°
2026-04-25 18:26 21.30681 -157.92769 12 ft 152 kts 90°
2026-04-25 18:26 21.30682 -157.91476 107 ft 189 kts 90°
2026-04-25 18:26 21.30468 -157.90057 610 ft 203 kts 113°
2026-04-25 18:27 21.29518 -157.88939 1232 ft 216 kts 149°
2026-04-25 18:27 21.28129 -157.88374 1999 ft 218 kts 162°
2026-04-25 18:27 21.26600 -157.87961 2521 ft 233 kts 165°
2026-04-25 18:27 21.25011 -157.87572 3209 ft 238 kts 168°
2026-04-25 18:28 21.23408 -157.87199 3986 ft 239 kts 163°
2026-04-25 18:28 21.21826 -157.86706 4524 ft 243 kts 163°
2026-04-25 18:28 21.20124 -157.86177 4818 ft 261 kts 163°
2026-04-25 18:29 21.16515 -157.85037 5393 ft 289 kts 163°
2026-04-25 18:29 21.14598 -157.84425 6204 ft 287 kts 163°
2026-04-25 18:30 21.08931 -157.82266 8253 ft 295 kts 143°
2026-04-25 18:30 21.07579 -157.80617 8882 ft 298 kts 116°
2026-04-25 18:30 21.07019 -157.78499 9509 ft 300 kts 90°
2026-04-25 18:30 21.07357 -157.76314 10099 ft 301 kts 65°
2026-04-25 18:31 21.08392 -157.74350 10400 ft 315 kts 55°
2026-04-25 18:31 21.09629 -157.72288 10431 ft 341 kts 57°
2026-04-25 18:31 21.10696 -157.69939 10464 ft 369 kts 70°
2026-04-25 18:31 21.11307 -157.67174 10773 ft 386 kts 80°
2026-04-25 18:32 21.11643 -157.64334 11626 ft 387 kts 83°
2026-04-25 18:32 21.11886 -157.61444 12249 ft 394 kts 85°
2026-04-25 18:32 21.12066 -157.58517 13008 ft 396 kts 86°
2026-04-25 18:32 21.12218 -157.55603 13688 ft 400 kts 86°
2026-04-25 18:33 21.12530 -157.52638 14386 ft 401 kts 75°
2026-04-25 18:33 21.13483 -157.49835 15078 ft 402 kts 60°
2026-04-25 18:33 21.15066 -157.47383 15770 ft 401 kts 45°
2026-04-25 18:33 21.17121 -157.45439 16448 ft 401 kts 35°
2026-04-25 18:34 21.19273 -157.43524 17130 ft 405 kts 42°
2026-04-25 18:34 21.21206 -157.41318 17782 ft 409 kts 47°
2026-04-25 18:34 21.23018 -157.38945 18424 ft 412 kts 50°
2026-04-25 18:34 21.24742 -157.36536 19043 ft 415 kts 51°
2026-04-25 18:35 21.26469 -157.34038 19647 ft 418 kts 52°
2026-04-25 18:35 21.28170 -157.31529 20225 ft 420 kts 52°
2026-04-25 18:35 21.29893 -157.28961 20803 ft 423 kts 53°
2026-04-25 18:35 21.31597 -157.26407 21360 ft 426 kts 53°
2026-04-25 18:36 21.33319 -157.23814 21904 ft 428 kts 53°
2026-04-25 18:36 21.35050 -157.21205 22436 ft 431 kts 53°
2026-04-25 18:36 21.36782 -157.18588 22964 ft 433 kts 53°
2026-04-25 18:36 21.38510 -157.15984 23373 ft 439 kts 56°
2026-04-25 18:37 21.40318 -157.13254 23405 ft 453 kts 56°
2026-04-25 18:37 21.42141 -157.10486 23922 ft 455 kts 56°
2026-04-25 18:37 21.43964 -157.07724 24440 ft 457 kts 56°
2026-04-25 18:37 21.45795 -157.04947 24875 ft 460 kts 56°
2026-04-25 18:38 21.47651 -157.02133 25376 ft 462 kts 56°
2026-04-25 18:38 21.49510 -156.99312 25821 ft 465 kts 56°
2026-04-25 18:38 21.51375 -156.96480 26281 ft 467 kts 56°
2026-04-25 18:38 21.53243 -156.93645 26722 ft 469 kts 57°
2026-04-25 18:39 21.55109 -156.90810 27152 ft 471 kts 57°
2026-04-25 18:39 21.57011 -156.87917 27588 ft 472 kts 57°
2026-04-25 18:39 21.58904 -156.85037 27997 ft 475 kts 57°
2026-04-25 18:39 21.60804 -156.82146 28394 ft 477 kts 57°
2026-04-25 18:40 21.62707 -156.79248 28791 ft 478 kts 56°
2026-04-25 18:40 21.64634 -156.76312 29171 ft 480 kts 56°
2026-04-25 18:40 21.66549 -156.73395 29551 ft 482 kts 56°
2026-04-25 18:40 21.68487 -156.70439 29923 ft 483 kts 56°
2026-04-25 18:41 21.70389 -156.67537 30445 ft 481 kts 56°
2026-04-25 18:41 21.72313 -156.64600 30995 ft 477 kts 56°
2026-04-25 18:41 21.74219 -156.61688 31469 ft 475 kts 56°
2026-04-25 18:41 21.76120 -156.58783 31919 ft 473 kts 56°
2026-04-25 18:42 21.77979 -156.55942 32342 ft 471 kts 56°
2026-04-25 18:42 21.78606 -156.54982 32486 ft 471 kts 56°
2026-04-25 18:42 21.81742 -156.50182 33107 ft 468 kts 56°
2026-04-25 18:42 21.83607 -156.47327 33126 ft 469 kts 56°
2026-04-25 18:43 21.87319 -156.41637 33120 ft 466 kts 56°
2026-04-25 18:43 21.91048 -156.35915 33114 ft 467 kts 56°
2026-04-25 18:44 21.94766 -156.30205 33111 ft 467 kts 56°
2026-04-25 18:44 21.98479 -156.24497 33104 ft 467 kts 56°
2026-04-25 18:45 22.02191 -156.18784 33101 ft 467 kts 56°
2026-04-25 18:45 22.05892 -156.13081 33101 ft 467 kts 56°
2026-04-25 18:46 22.09618 -156.07335 33101 ft 466 kts 56°
2026-04-25 18:46 22.13307 -156.01639 33100 ft 466 kts 56°
2026-04-25 18:47 22.17024 -155.95892 33100 ft 467 kts 56°
2026-04-25 18:47 22.20708 -155.90192 33099 ft 467 kts 56°
2026-04-25 18:48 22.24433 -155.84422 33100 ft 467 kts 56°
2026-04-25 18:48 22.28118 -155.78708 33099 ft 467 kts 56°
2026-04-25 18:49 22.31831 -155.72946 33099 ft 467 kts 56°
2026-04-25 18:49 22.35522 -155.67210 33099 ft 467 kts 56°
2026-04-25 18:50 22.39210 -155.61472 33099 ft 467 kts 56°
2026-04-25 18:50 22.42886 -155.55747 33098 ft 466 kts 56°
2026-04-25 18:51 22.45366 -155.51883 33099 ft 467 kts 56°
2026-04-25 18:51 22.50272 -155.44226 33098 ft 467 kts 56°
2026-04-25 18:52 22.53953 -155.38475 33098 ft 467 kts 56°
2026-04-25 18:52 22.57645 -155.32700 33102 ft 467 kts 57°
2026-04-25 18:53 22.61301 -155.26976 33101 ft 467 kts 57°
2026-04-25 18:53 22.65000 -155.21176 33101 ft 466 kts 57°
2026-04-25 18:54 22.70490 -155.12560 33101 ft 467 kts 57°
2026-04-25 18:55 22.74171 -155.06773 33101 ft 467 kts 57°
2026-04-25 18:55 22.77826 -155.01021 33100 ft 466 kts 57°
2026-04-25 18:56 22.81495 -154.95239 33098 ft 461 kts 56°
2026-04-25 18:56 22.85115 -154.89529 33100 ft 462 kts 56°
2026-04-25 18:57 22.88741 -154.83806 33099 ft 462 kts 55°
2026-04-25 18:57 22.92360 -154.78081 33098 ft 461 kts 54°
2026-04-25 18:58 22.95990 -154.72339 33098 ft 464 kts 53°
2026-04-25 18:58 23.01470 -154.63605 33098 ft 473 kts 53°
2026-04-25 18:59 23.08776 -154.51622 33097 ft 478 kts 53°
2026-04-25 19:00 23.14257 -154.42618 33105 ft 479 kts 53°
2026-04-25 19:01 23.19760 -154.33560 33101 ft 479 kts 53°
2026-04-25 19:01 23.23411 -154.27544 33100 ft 478 kts 53°
2026-04-25 19:02 23.28889 -154.18500 33101 ft 479 kts 53°
2026-04-25 19:03 23.33136 -154.11478 33100 ft 479 kts 53°
2026-04-25 19:03 23.38003 -154.03420 33101 ft 478 kts 53°
2026-04-25 19:04 23.43476 -153.94344 33101 ft 479 kts 53°
2026-04-25 19:05 23.50738 -153.82274 33101 ft 479 kts 53°
2026-04-25 19:06 23.54390 -153.76192 33101 ft 479 kts 53°
2026-04-25 19:06 23.59839 -153.67107 33119 ft 479 kts 53°
2026-04-25 19:07 23.65276 -153.58022 33119 ft 479 kts 53°
2026-04-25 19:08 23.70732 -153.48892 33119 ft 479 kts 53°
2026-04-25 19:09 23.76760 -153.38783 33120 ft 479 kts 53°
2026-04-25 19:10 23.83420 -153.27650 33116 ft 479 kts 54°
2026-04-25 19:10 23.87053 -153.21576 33116 ft 479 kts 54°
2026-04-25 19:11 23.90687 -153.15489 33116 ft 479 kts 54°
2026-04-25 19:11 23.94308 -153.09416 33116 ft 479 kts 53°
2026-04-25 19:12 23.97922 -153.03348 33116 ft 478 kts 53°
2026-04-25 19:12 24.01545 -152.97258 33115 ft 477 kts 53°
2026-04-25 19:13 24.05150 -152.91191 33115 ft 477 kts 53°
2026-04-25 19:13 24.08739 -152.85144 33114 ft 476 kts 53°
2026-04-25 19:14 24.12331 -152.79085 33123 ft 476 kts 53°
2026-04-25 19:14 24.15931 -152.73007 33122 ft 476 kts 53°
2026-04-25 19:15 24.19524 -152.66930 33122 ft 476 kts 53°
2026-04-25 19:15 24.23105 -152.60867 33122 ft 476 kts 53°
2026-04-25 19:16 24.26685 -152.54797 33123 ft 476 kts 53°
2026-04-25 19:16 24.30265 -152.48720 33122 ft 476 kts 53°
2026-04-25 19:17 24.33862 -152.42607 33123 ft 476 kts 53°
2026-04-25 19:17 24.37428 -152.36539 33122 ft 476 kts 53°
2026-04-25 19:18 24.40996 -152.30460 33118 ft 476 kts 53°
2026-04-25 19:18 24.44577 -152.24352 33118 ft 476 kts 53°
2026-04-25 19:19 24.48139 -152.18266 33117 ft 476 kts 53°
2026-04-25 19:19 24.51712 -152.12157 33118 ft 476 kts 53°
2026-04-25 19:20 24.55265 -152.06071 33118 ft 476 kts 53°
2026-04-25 19:20 24.58833 -151.99956 33118 ft 476 kts 53°
2026-04-25 19:21 24.62403 -151.93826 33118 ft 476 kts 53°
2026-04-25 19:21 24.67722 -151.84682 33118 ft 476 kts 53°
2026-04-25 19:22 24.71291 -151.78534 33118 ft 476 kts 53°
2026-04-25 19:23 24.76592 -151.69391 33118 ft 476 kts 53°
2026-04-25 19:23 24.81925 -151.60176 33118 ft 476 kts 53°
2026-04-25 19:24 24.85457 -151.54062 33118 ft 476 kts 53°
2026-04-25 19:25 24.92520 -151.41814 33118 ft 476 kts 53°
2026-04-25 19:25 24.96069 -151.35646 33118 ft 476 kts 53°
2026-04-25 19:26 24.99598 -151.29506 33113 ft 477 kts 53°
2026-04-25 19:26 25.03147 -151.23325 33113 ft 479 kts 53°
2026-04-25 19:27 25.05523 -151.19180 33112 ft 480 kts 53°
2026-04-25 19:27 25.10281 -151.10872 33114 ft 484 kts 52°
2026-04-25 19:28 25.13864 -151.04607 33121 ft 486 kts 52°
2026-04-25 19:28 25.17468 -150.98297 33121 ft 487 kts 53°
2026-04-25 19:29 25.21071 -150.91978 33121 ft 487 kts 53°
2026-04-25 19:29 25.24664 -150.85667 33122 ft 487 kts 53°
2026-04-25 19:30 25.28254 -150.79356 33121 ft 487 kts 53°
2026-04-25 19:30 25.31837 -150.73048 33122 ft 487 kts 53°
2026-04-25 19:31 25.35442 -150.66692 33122 ft 487 kts 53°
2026-04-25 19:31 25.39019 -150.60379 33123 ft 487 kts 53°
2026-04-25 19:32 25.42610 -150.54028 33122 ft 487 kts 53°
2026-04-25 19:32 25.44979 -150.49837 33122 ft 487 kts 53°
2026-04-25 19:33 25.49744 -150.41394 33122 ft 487 kts 53°
2026-04-25 19:33 25.53337 -150.35016 33123 ft 487 kts 53°
2026-04-25 19:34 25.56900 -150.28683 33116 ft 487 kts 53°
2026-04-25 19:34 25.60465 -150.22337 33116 ft 488 kts 53°
2026-04-25 19:35 25.64045 -150.15958 33116 ft 487 kts 53°
2026-04-25 19:35 25.67611 -150.09593 33116 ft 488 kts 53°
2026-04-25 19:36 25.71185 -150.03206 33116 ft 487 kts 53°
2026-04-25 19:36 25.74741 -149.96841 33117 ft 487 kts 53°
2026-04-25 19:37 25.78294 -149.90475 33118 ft 488 kts 53°
2026-04-25 19:37 25.81845 -149.84103 33118 ft 487 kts 53°
2026-04-25 19:38 25.85412 -149.77693 33117 ft 488 kts 53°
2026-04-25 19:38 25.88941 -149.71343 33117 ft 487 kts 53°
2026-04-25 19:39 25.92491 -149.64944 33118 ft 488 kts 53°
2026-04-25 19:39 25.96034 -149.58551 33118 ft 487 kts 53°
2026-04-25 19:40 25.99585 -149.52135 33118 ft 488 kts 53°
2026-04-25 19:40 26.03122 -149.45734 33119 ft 487 kts 53°
2026-04-25 19:41 26.06664 -149.39314 33119 ft 488 kts 53°
2026-04-25 19:41 26.09003 -149.35071 33119 ft 487 kts 53°
2026-04-25 19:42 26.13717 -149.26508 33120 ft 488 kts 53°
2026-04-25 19:42 26.17257 -149.20067 33120 ft 488 kts 54°
2026-04-25 19:43 26.20782 -149.13643 33120 ft 488 kts 54°
2026-04-25 19:43 26.24293 -149.07234 33119 ft 487 kts 54°
2026-04-25 19:44 26.27825 -149.00780 33120 ft 488 kts 53°
2026-04-25 19:44 26.31329 -148.94367 33121 ft 488 kts 53°
2026-04-25 19:45 26.34849 -148.87915 33121 ft 489 kts 53°
2026-04-25 19:45 26.38386 -148.81424 33121 ft 489 kts 53°
2026-04-25 19:46 26.41893 -148.74979 33121 ft 489 kts 53°
2026-04-25 19:46 26.45425 -148.68478 33121 ft 489 kts 53°
2026-04-25 19:47 26.48926 -148.62025 33122 ft 489 kts 53°
2026-04-25 19:47 26.52443 -148.55531 33122 ft 489 kts 53°
2026-04-25 19:48 26.55956 -148.49037 33122 ft 489 kts 53°
2026-04-25 19:48 26.59442 -148.42584 33122 ft 489 kts 53°
2026-04-25 19:49 26.61797 -148.38219 33123 ft 489 kts 53°
2026-04-25 19:49 26.66457 -148.29570 33115 ft 490 kts 54°
2026-04-25 19:50 26.71713 -148.19792 33115 ft 490 kts 54°
2026-04-25 19:51 26.75203 -148.13289 33115 ft 489 kts 54°
2026-04-25 19:51 26.78693 -148.06776 33116 ft 490 kts 54°
2026-04-25 19:52 26.82177 -148.00262 33116 ft 490 kts 54°
2026-04-25 19:52 26.85668 -147.93729 33116 ft 490 kts 54°
2026-04-25 19:53 26.89147 -147.87207 33116 ft 490 kts 53°
2026-04-25 19:53 26.92644 -147.80643 33117 ft 493 kts 53°
2026-04-25 19:54 26.96150 -147.74049 33118 ft 496 kts 53°
2026-04-25 19:54 26.99676 -147.67410 33118 ft 499 kts 52°
2026-04-25 19:55 27.03236 -147.60696 33120 ft 502 kts 52°
2026-04-25 19:55 27.06787 -147.53993 33122 ft 505 kts 52°
2026-04-25 19:56 27.10368 -147.47217 33122 ft 504 kts 52°
2026-04-25 19:56 27.13916 -147.40497 33125 ft 502 kts 52°
2026-04-25 19:57 27.17486 -147.33727 33123 ft 504 kts 52°
2026-04-25 19:57 27.21018 -147.27010 33116 ft 503 kts 52°
2026-04-25 19:58 27.24425 -147.20094 33122 ft 509 kts 57°
2026-04-25 19:58 27.27516 -147.13013 33121 ft 508 kts 57°
2026-04-25 19:59 27.30619 -147.05847 33120 ft 510 kts 57°
2026-04-25 19:59 27.33708 -146.98682 33119 ft 513 kts 58°
2026-04-25 20:00 27.36817 -146.91449 33122 ft 517 kts 58°
2026-04-25 20:00 27.39922 -146.84209 33122 ft 518 kts 58°
2026-04-25 20:01 27.44598 -146.73277 33123 ft 517 kts 58°
2026-04-25 20:01 27.47693 -146.66029 33124 ft 517 kts 58°
2026-04-25 20:02 27.50796 -146.58746 33124 ft 517 kts 58°
2026-04-25 20:02 27.53895 -146.51462 33124 ft 516 kts 58°
2026-04-25 20:03 27.56992 -146.44168 33126 ft 517 kts 58°
2026-04-25 20:03 27.60091 -146.36858 33126 ft 517 kts 58°
2026-04-25 20:04 27.63186 -146.29544 33114 ft 517 kts 58°
2026-04-25 20:04 27.66262 -146.22260 33114 ft 517 kts 58°
2026-04-25 20:05 27.69348 -146.14940 33114 ft 517 kts 58°
2026-04-25 20:05 27.72424 -146.07632 33117 ft 518 kts 58°
2026-04-25 20:06 27.75498 -146.00314 33116 ft 518 kts 59°
2026-04-25 20:06 27.78562 -145.93005 33117 ft 518 kts 59°
2026-04-25 20:07 27.81644 -145.85643 33119 ft 518 kts 59°
2026-04-25 20:07 27.84699 -145.78328 33119 ft 518 kts 59°
2026-04-25 20:08 27.87769 -145.70967 33120 ft 518 kts 58°
2026-04-25 20:08 27.90828 -145.63619 33121 ft 518 kts 58°
2026-04-25 20:09 27.93881 -145.56270 33121 ft 518 kts 58°
2026-04-25 20:09 27.96930 -145.48917 33123 ft 518 kts 58°
2026-04-25 20:10 27.99966 -145.41580 33123 ft 517 kts 58°
2026-04-25 20:10 28.03009 -145.34218 33120 ft 517 kts 59°
2026-04-25 20:11 28.06049 -145.26849 33111 ft 518 kts 59°
2026-04-25 20:11 28.09078 -145.19490 33112 ft 518 kts 59°
2026-04-25 20:12 28.12116 -145.12100 33119 ft 517 kts 59°
2026-04-25 20:12 28.14122 -145.07210 33119 ft 516 kts 60°
2026-04-25 20:13 28.18143 -144.97394 33121 ft 515 kts 61°
2026-04-25 20:13 28.21137 -144.90063 33121 ft 514 kts 61°
2026-04-25 20:14 28.24124 -144.82738 33121 ft 513 kts 61°
2026-04-25 20:14 28.27104 -144.75417 33123 ft 515 kts 61°
2026-04-25 20:15 28.30091 -144.68063 33122 ft 514 kts 61°
2026-04-25 20:15 28.33006 -144.60877 33123 ft 514 kts 60°
2026-04-25 20:16 28.35967 -144.53563 33125 ft 514 kts 60°
2026-04-25 20:16 28.38946 -144.46187 33128 ft 514 kts 60°
2026-04-25 20:17 28.41923 -144.38806 33125 ft 513 kts 61°
2026-04-25 20:17 28.44869 -144.31490 33114 ft 514 kts 61°
2026-04-25 20:18 28.47843 -144.24083 33116 ft 514 kts 61°
2026-04-25 20:18 28.50783 -144.16751 33117 ft 514 kts 61°
2026-04-25 20:19 28.53744 -144.09352 33117 ft 514 kts 61°
2026-04-25 20:19 28.56687 -144.01987 33117 ft 514 kts 61°
2026-04-25 20:20 28.59645 -143.94566 33119 ft 514 kts 61°
2026-04-25 20:20 28.62588 -143.87172 33120 ft 514 kts 61°
2026-04-25 20:21 28.65510 -143.79814 33120 ft 514 kts 61°
2026-04-25 20:21 28.68443 -143.72417 33121 ft 515 kts 61°
2026-04-25 20:22 28.70405 -143.67458 33121 ft 514 kts 61°
2026-04-25 20:22 28.74309 -143.57573 33123 ft 514 kts 61°
2026-04-25 20:23 28.77224 -143.50177 33123 ft 514 kts 61°
2026-04-25 20:23 28.80157 -143.42719 33123 ft 515 kts 61°
2026-04-25 20:24 28.83060 -143.35323 33124 ft 514 kts 61°
2026-04-25 20:24 28.85976 -143.27884 33114 ft 515 kts 62°
2026-04-25 20:25 28.88891 -143.20428 33114 ft 514 kts 62°
2026-04-25 20:25 28.91776 -143.13037 33115 ft 515 kts 62°
2026-04-25 20:26 28.94685 -143.05568 33115 ft 515 kts 62°
2026-04-25 20:26 28.97580 -142.98125 33116 ft 516 kts 63°
2026-04-25 20:27 29.00493 -142.90622 33119 ft 520 kts 64°
2026-04-25 20:27 29.03415 -142.83075 33120 ft 519 kts 64°
2026-04-25 20:28 29.06308 -142.75584 33123 ft 518 kts 65°
2026-04-25 20:28 29.09230 -142.68005 33122 ft 522 kts 65°
2026-04-25 20:29 29.12137 -142.60451 33122 ft 524 kts 65°
2026-04-25 20:29 29.15061 -142.52835 33123 ft 525 kts 66°
2026-04-25 20:30 29.17993 -142.45184 33124 ft 524 kts 66°
2026-04-25 20:30 29.20904 -142.37572 33121 ft 524 kts 66°
2026-04-25 20:31 29.23805 -142.29971 33115 ft 524 kts 66°
2026-04-25 20:31 29.26715 -142.22334 33116 ft 524 kts 66°
2026-04-25 20:32 29.29620 -142.14690 33115 ft 524 kts 66°
2026-04-25 20:32 29.32518 -142.07051 33115 ft 524 kts 66°
2026-04-25 20:33 29.35403 -141.99431 33115 ft 524 kts 66°
2026-04-25 20:33 29.37327 -141.94338 33120 ft 524 kts 66°
2026-04-25 20:34 29.41189 -141.84099 33118 ft 524 kts 66°
2026-04-25 20:34 29.44069 -141.76445 33120 ft 524 kts 66°
2026-04-25 20:35 29.46927 -141.68832 33122 ft 524 kts 66°
2026-04-25 20:35 29.49806 -141.61148 33124 ft 524 kts 66°
2026-04-25 20:36 29.52674 -141.53477 33123 ft 525 kts 66°
2026-04-25 20:36 29.55545 -141.45781 33124 ft 524 kts 66°
2026-04-25 20:37 29.58390 -141.38139 33124 ft 524 kts 66°
2026-04-25 20:37 29.61252 -141.30437 33115 ft 524 kts 67°
2026-04-25 20:38 29.64095 -141.22769 33116 ft 524 kts 67°
2026-04-25 20:38 29.66946 -141.15060 33116 ft 524 kts 67°
2026-04-25 20:39 29.69779 -141.07390 33118 ft 524 kts 67°
2026-04-25 20:39 29.71667 -141.02271 33120 ft 522 kts 68°
2026-04-25 20:40 29.75421 -140.92065 33121 ft 517 kts 69°
2026-04-25 20:40 29.78207 -140.84470 33122 ft 513 kts 70°
2026-04-25 20:41 29.80952 -140.76962 33123 ft 514 kts 70°
2026-04-25 20:41 29.83727 -140.69362 33122 ft 515 kts 70°
2026-04-25 20:42 29.86485 -140.61795 33124 ft 514 kts 70°
2026-04-25 20:42 29.89243 -140.54211 33125 ft 514 kts 70°
2026-04-25 20:43 29.91993 -140.46634 33125 ft 514 kts 70°
2026-04-25 20:43 29.94728 -140.39061 33126 ft 514 kts 70°
2026-04-25 20:44 29.97278 -140.31390 33121 ft 513 kts 72°
2026-04-25 20:44 29.99803 -140.23721 33123 ft 513 kts 72°
2026-04-25 20:45 30.02329 -140.16022 33121 ft 513 kts 72°
2026-04-25 20:45 30.04839 -140.08348 33122 ft 513 kts 72°
2026-04-25 20:46 30.07351 -140.00648 33124 ft 514 kts 72°
2026-04-25 20:46 30.09856 -139.92953 33125 ft 513 kts 72°
2026-04-25 20:47 30.12360 -139.85242 33077 ft 513 kts 72°
2026-04-25 20:47 30.14851 -139.77557 33017 ft 512 kts 72°
2026-04-25 20:48 30.17337 -139.69869 32956 ft 512 kts 72°
2026-04-25 20:48 30.19824 -139.62158 32924 ft 512 kts 72°
2026-04-25 20:49 30.22297 -139.54472 32926 ft 512 kts 72°
2026-04-25 20:49 30.24757 -139.46814 32928 ft 512 kts 72°
2026-04-25 20:50 30.27232 -139.39084 32928 ft 511 kts 72°
2026-04-25 20:50 30.29703 -139.31354 32921 ft 512 kts 72°
2026-04-25 20:51 30.32146 -139.23688 32921 ft 512 kts 72°
2026-04-25 20:51 30.34608 -139.15947 32923 ft 511 kts 72°
2026-04-25 20:52 30.36228 -139.10843 32924 ft 510 kts 72°
2026-04-25 20:52 30.39477 -139.00581 32925 ft 508 kts 72°
2026-04-25 20:53 30.41889 -138.92947 32926 ft 507 kts 71°
2026-04-25 20:53 30.44303 -138.85289 32927 ft 507 kts 71°
2026-04-25 20:54 30.46715 -138.77618 32927 ft 507 kts 71°
2026-04-25 20:54 30.49122 -138.69946 32928 ft 506 kts 71°
2026-04-25 20:55 30.51513 -138.62302 32929 ft 507 kts 71°
2026-04-25 20:55 30.53915 -138.54605 32929 ft 507 kts 71°
2026-04-25 20:56 30.56296 -138.46959 32929 ft 507 kts 71°
2026-04-25 20:56 30.58678 -138.39294 32930 ft 507 kts 71°
2026-04-25 20:57 30.61055 -138.31625 32925 ft 507 kts 72°
2026-04-25 20:57 30.63430 -138.23946 32926 ft 506 kts 72°
2026-04-25 20:58 30.65800 -138.16260 32926 ft 507 kts 72°
2026-04-25 20:58 30.68176 -138.08540 32927 ft 506 kts 72°
2026-04-25 20:59 30.70535 -138.00854 32928 ft 507 kts 72°
2026-04-25 20:59 30.72883 -137.93188 32928 ft 507 kts 72°
2026-04-25 21:00 30.74460 -137.88026 32929 ft 507 kts 72°
2026-04-25 21:01 30.78768 -137.73889 32929 ft 507 kts 72°
2026-04-25 21:01 30.81107 -137.66185 32930 ft 507 kts 72°
2026-04-25 21:02 30.83439 -137.58485 32931 ft 507 kts 72°
2026-04-25 21:02 30.85773 -137.50761 32931 ft 507 kts 72°
2026-04-25 21:03 30.88092 -137.43069 32932 ft 507 kts 72°
2026-04-25 21:03 30.90424 -137.35313 32932 ft 505 kts 72°
2026-04-25 21:04 30.92721 -137.27661 32928 ft 503 kts 73°
2026-04-25 21:04 30.95009 -137.20015 32928 ft 501 kts 73°
2026-04-25 21:05 30.97296 -137.12350 32929 ft 499 kts 73°
2026-04-25 21:05 30.99559 -137.04752 32930 ft 497 kts 73°
2026-04-25 21:06 31.01795 -136.97218 32931 ft 495 kts 73°
2026-04-25 21:06 31.04038 -136.89647 32920 ft 493 kts 72°
2026-04-25 21:07 31.06270 -136.82094 32919 ft 492 kts 72°
2026-04-25 21:07 31.08488 -136.74574 32921 ft 492 kts 72°
2026-04-25 21:08 31.10705 -136.67041 32916 ft 491 kts 72°
2026-04-25 21:08 31.12910 -136.59528 32917 ft 492 kts 72°
2026-04-25 21:09 31.16222 -136.48209 32917 ft 492 kts 72°
2026-04-25 21:09 31.18411 -136.40703 32917 ft 491 kts 72°
2026-04-25 21:10 31.20607 -136.33153 32915 ft 492 kts 72°
2026-04-25 21:10 31.22799 -136.25598 32916 ft 492 kts 72°
2026-04-25 21:11 31.24991 -136.18025 32916 ft 491 kts 72°
2026-04-25 21:11 31.27160 -136.10513 32915 ft 492 kts 72°
2026-04-25 21:12 31.29343 -136.02936 32915 ft 491 kts 72°
2026-04-25 21:12 31.30787 -135.97913 32916 ft 491 kts 72°
2026-04-25 21:13 31.33680 -135.87826 32917 ft 491 kts 72°
2026-04-25 21:13 31.35849 -135.80238 32917 ft 492 kts 72°
2026-04-25 21:14 31.38006 -135.72673 32919 ft 491 kts 72°
2026-04-25 21:14 31.40161 -135.65099 32917 ft 492 kts 72°
2026-04-25 21:15 31.42302 -135.57555 32917 ft 492 kts 72°
2026-04-25 21:15 31.44448 -135.49973 32918 ft 492 kts 72°
2026-04-25 21:16 31.46597 -135.42368 32918 ft 491 kts 72°
2026-04-25 21:16 31.48732 -135.34781 32921 ft 492 kts 73°
2026-04-25 21:17 31.50863 -135.27190 32914 ft 492 kts 73°
2026-04-25 21:17 31.52988 -135.19608 32917 ft 491 kts 73°
2026-04-25 21:18 31.55110 -135.12012 32918 ft 492 kts 73°
2026-04-25 21:18 31.57230 -135.04395 32918 ft 495 kts 72°
2026-04-25 21:19 31.59363 -134.96718 32917 ft 496 kts 71°
2026-04-25 21:19 31.61483 -134.89072 32918 ft 493 kts 70°
2026-04-25 21:20 31.62883 -134.84015 32916 ft 491 kts 70°
2026-04-25 21:20 31.65691 -134.73848 32919 ft 492 kts 70°
2026-04-25 21:21 31.67791 -134.66216 32920 ft 492 kts 70°
2026-04-25 21:21 31.69889 -134.58572 32917 ft 492 kts 70°
2026-04-25 21:22 31.71977 -134.50941 32916 ft 491 kts 70°
2026-04-25 21:22 31.74058 -134.43317 32919 ft 492 kts 70°
2026-04-25 21:23 31.76144 -134.35651 32922 ft 492 kts 70°
2026-04-25 21:23 31.78215 -134.28029 32915 ft 492 kts 71°
2026-04-25 21:24 31.80289 -134.20369 32916 ft 492 kts 71°
2026-04-25 21:24 31.82353 -134.12727 32917 ft 492 kts 71°
2026-04-25 21:25 31.84415 -134.05075 32917 ft 492 kts 71°
2026-04-25 21:25 31.86471 -133.97420 32919 ft 492 kts 71°
2026-04-25 21:26 31.88520 -133.89769 32915 ft 492 kts 71°
2026-04-25 21:26 31.90570 -133.82095 32915 ft 492 kts 71°
2026-04-25 21:27 31.92611 -133.74440 32921 ft 493 kts 71°
2026-04-25 21:27 31.94654 -133.66751 32919 ft 492 kts 71°
2026-04-25 21:28 31.96679 -133.59111 32918 ft 493 kts 71°
2026-04-25 21:28 31.98710 -133.51427 32920 ft 492 kts 71°
2026-04-25 21:29 32.00737 -133.43736 32918 ft 493 kts 71°
2026-04-25 21:29 32.02759 -133.36046 32920 ft 492 kts 71°
2026-04-25 21:30 32.04773 -133.28365 32914 ft 492 kts 71°
2026-04-25 21:30 32.06453 -133.21941 32915 ft 492 kts 71°
2026-04-25 21:31 32.08794 -133.12959 32916 ft 492 kts 71°
2026-04-25 21:31 32.10780 -133.05318 32918 ft 490 kts 70°
2026-04-25 21:32 32.12773 -132.97632 32921 ft 488 kts 70°
2026-04-25 21:32 32.14742 -132.90019 32920 ft 487 kts 70°
2026-04-25 21:33 32.16809 -132.82439 32922 ft 484 kts 64°
2026-04-25 21:33 32.19857 -132.75435 32917 ft 479 kts 58°
2026-04-25 21:34 32.22959 -132.68498 32920 ft 480 kts 59°
2026-04-25 21:34 32.26037 -132.61568 32920 ft 480 kts 59°
2026-04-25 21:35 32.29133 -132.54570 32921 ft 480 kts 59°
2026-04-25 21:35 32.32196 -132.47626 32920 ft 479 kts 59°
2026-04-25 21:36 32.35277 -132.40628 32923 ft 479 kts 59°
2026-04-25 21:36 32.38343 -132.33650 32918 ft 480 kts 59°
2026-04-25 21:37 32.40383 -132.29001 32914 ft 481 kts 59°
2026-04-25 21:37 32.44484 -132.19634 32916 ft 480 kts 59°
2026-04-25 21:38 32.47549 -132.12616 32918 ft 480 kts 59°
2026-04-25 21:38 32.50604 -132.05609 32916 ft 480 kts 59°
2026-04-25 21:39 32.53662 -131.98583 32916 ft 480 kts 59°
2026-04-25 21:39 32.56700 -131.91585 32916 ft 481 kts 59°
2026-04-25 21:40 32.59736 -131.84580 32917 ft 480 kts 59°
2026-04-25 21:40 32.62780 -131.77544 32918 ft 480 kts 59°
2026-04-25 21:41 32.65816 -131.70509 32918 ft 480 kts 59°
2026-04-25 21:41 32.68853 -131.63463 32917 ft 480 kts 59°
2026-04-25 21:42 32.71875 -131.56435 32915 ft 480 kts 59°
2026-04-25 21:42 32.74897 -131.49393 32920 ft 481 kts 59°
2026-04-25 21:43 32.77935 -131.42299 33256 ft 484 kts 59°
2026-04-25 21:43 32.79460 -131.38731 33782 ft 482 kts 59°
2026-04-25 21:43 32.80961 -131.35219 34148 ft 482 kts 59°
2026-04-25 21:44 32.82480 -131.31661 34528 ft 482 kts 60°
2026-04-25 21:44 32.83991 -131.28116 34871 ft 482 kts 59°
2026-04-25 21:45 32.88516 -131.17480 34913 ft 478 kts 60°
2026-04-25 21:45 32.91523 -131.10400 34918 ft 480 kts 60°
2026-04-25 21:46 32.94520 -131.03325 34914 ft 478 kts 60°
2026-04-25 21:46 32.97496 -130.96284 34914 ft 477 kts 60°
2026-04-25 21:47 33.00441 -130.89304 34915 ft 472 kts 60°
2026-04-25 21:47 33.03371 -130.82344 34913 ft 467 kts 60°
2026-04-25 21:48 33.06249 -130.75496 34915 ft 464 kts 60°
2026-04-25 21:48 33.09130 -130.68630 34917 ft 464 kts 60°
2026-04-25 21:49 33.12010 -130.61749 34921 ft 462 kts 60°
2026-04-25 21:49 33.14872 -130.54901 34921 ft 462 kts 60°
2026-04-25 21:50 33.17717 -130.48077 34927 ft 462 kts 60°
2026-04-25 21:50 33.20568 -130.41226 34931 ft 462 kts 60°
2026-04-25 21:51 33.23413 -130.34376 34932 ft 462 kts 60°
2026-04-25 21:51 33.26271 -130.27483 34932 ft 462 kts 60°
2026-04-25 21:52 33.29100 -130.20642 34941 ft 462 kts 60°
2026-04-25 21:52 33.31929 -130.13791 34947 ft 462 kts 60°
2026-04-25 21:53 33.34780 -130.06873 34950 ft 462 kts 60°
2026-04-25 21:53 33.37600 -130.00014 34948 ft 462 kts 60°
2026-04-25 21:54 33.40435 -129.93108 34950 ft 462 kts 60°
2026-04-25 21:54 33.43248 -129.86241 34956 ft 462 kts 60°
2026-04-25 21:55 33.46066 -129.79346 34962 ft 463 kts 60°
2026-04-25 21:55 33.48886 -129.72433 34957 ft 462 kts 60°
2026-04-25 21:56 33.51688 -129.65552 34960 ft 462 kts 60°
2026-04-25 21:56 33.54510 -129.58606 34964 ft 463 kts 60°
2026-04-25 21:57 33.57304 -129.51717 34964 ft 462 kts 60°
2026-04-25 21:57 33.60101 -129.44803 34965 ft 463 kts 60°
2026-04-25 21:58 33.62907 -129.37857 34961 ft 462 kts 60°
2026-04-25 21:58 33.65689 -129.30954 34960 ft 463 kts 61°
2026-04-25 21:59 33.68487 -129.23996 34963 ft 463 kts 61°
2026-04-25 21:59 33.71281 -129.17038 34963 ft 463 kts 61°
2026-04-25 22:00 33.75436 -129.06657 34961 ft 462 kts 61°
2026-04-25 22:00 33.78200 -128.99736 34959 ft 461 kts 60°
2026-04-25 22:01 33.80971 -128.92783 34959 ft 461 kts 60°
2026-04-25 22:01 33.83257 -128.87036 34957 ft 460 kts 60°
2026-04-25 22:02 33.86043 -128.78676 34967 ft 468 kts 72°
2026-04-25 22:02 33.86734 -128.70866 34963 ft 476 kts 82°
2026-04-25 22:03 33.87048 -128.62909 34957 ft 475 kts 83°
2026-04-25 22:03 33.87295 -128.54997 34962 ft 476 kts 83°
2026-04-25 22:04 33.87515 -128.47075 34962 ft 475 kts 83°
2026-04-25 22:04 33.87723 -128.39156 34960 ft 476 kts 83°
2026-04-25 22:05 33.87924 -128.31198 34958 ft 476 kts 84°
2026-04-25 22:05 33.88118 -128.23265 34958 ft 476 kts 84°
2026-04-25 22:06 33.88308 -128.15315 34958 ft 476 kts 84°
2026-04-25 22:06 33.88491 -128.07382 34958 ft 476 kts 84°
2026-04-25 22:07 33.88641 -128.00752 34959 ft 476 kts 84°
2026-04-25 22:07 33.88843 -127.91501 34960 ft 476 kts 84°
2026-04-25 22:08 33.89013 -127.83521 34961 ft 476 kts 84°
2026-04-25 22:08 33.89176 -127.75610 34960 ft 476 kts 84°
2026-04-25 22:09 33.89334 -127.67651 34959 ft 476 kts 84°
2026-04-25 22:09 33.89487 -127.59718 34958 ft 475 kts 84°
2026-04-25 22:10 33.89635 -127.51794 34961 ft 476 kts 84°
2026-04-25 22:10 33.89778 -127.43815 34958 ft 476 kts 84°
2026-04-25 22:11 33.89916 -127.35880 34960 ft 477 kts 84°
2026-04-25 22:11 33.90049 -127.27917 34960 ft 476 kts 84°
2026-04-25 22:12 33.90177 -127.19991 34958 ft 476 kts 84°
2026-04-25 22:12 33.90260 -127.14650 34961 ft 475 kts 84°
2026-04-25 22:13 33.90414 -127.04206 34959 ft 469 kts 84°
2026-04-25 22:13 33.90524 -126.96417 34955 ft 464 kts 84°
2026-04-25 22:14 33.90630 -126.88636 34962 ft 465 kts 84°
2026-04-25 22:14 33.90730 -126.80892 34958 ft 463 kts 84°
2026-04-25 22:15 33.90826 -126.73121 34960 ft 465 kts 84°
2026-04-25 22:16 33.90959 -126.61535 34967 ft 464 kts 84°
2026-04-25 22:16 33.91042 -126.53780 34970 ft 464 kts 84°
2026-04-25 22:17 33.91121 -126.46013 34978 ft 465 kts 84°
2026-04-25 22:17 33.91194 -126.38252 34976 ft 465 kts 84°
2026-04-25 22:18 33.91262 -126.30493 34976 ft 465 kts 84°
2026-04-25 22:18 33.91326 -126.22743 34975 ft 465 kts 84°
2026-04-25 22:19 33.91385 -126.14964 34976 ft 464 kts 85°
2026-04-25 22:19 33.91439 -126.07227 34980 ft 465 kts 85°
2026-04-25 22:20 33.91488 -125.99480 34978 ft 465 kts 85°
2026-04-25 22:20 33.91532 -125.91688 34978 ft 465 kts 84°
2026-04-25 22:21 33.91571 -125.83971 34977 ft 464 kts 84°
2026-04-25 22:21 33.91606 -125.76182 34978 ft 465 kts 85°
2026-04-25 22:22 33.91635 -125.68406 34976 ft 464 kts 84°
2026-04-25 22:22 33.91660 -125.60680 34976 ft 465 kts 85°
2026-04-25 22:23 33.91680 -125.52880 34976 ft 464 kts 85°
2026-04-25 22:23 33.91695 -125.45153 34975 ft 466 kts 85°
2026-04-25 22:24 33.91705 -125.37350 34977 ft 464 kts 85°
2026-04-25 22:24 33.91710 -125.29630 34978 ft 464 kts 85°
2026-04-25 22:25 33.91711 -125.21855 34979 ft 465 kts 85°
2026-04-25 22:25 33.91707 -125.14117 34976 ft 465 kts 85°
2026-04-25 22:26 33.91697 -125.06341 34975 ft 465 kts 85°
2026-04-25 22:26 33.91682 -124.98535 34978 ft 464 kts 85°
2026-04-25 22:27 33.91889 -124.90905 34982 ft 454 kts 76°
2026-04-25 22:27 33.93234 -124.83508 34977 ft 450 kts 73°
2026-04-25 22:28 33.94608 -124.76232 34976 ft 448 kts 73°
2026-04-25 22:28 33.95992 -124.68880 34976 ft 449 kts 73°
2026-04-25 22:29 33.97362 -124.61580 34975 ft 449 kts 73°
2026-04-25 22:29 33.98731 -124.54255 34975 ft 448 kts 73°
2026-04-25 22:30 34.00772 -124.43291 34974 ft 449 kts 73°
2026-04-25 22:30 34.01905 -124.37175 34974 ft 449 kts 73°
2026-04-25 22:31 34.03482 -124.28644 34977 ft 449 kts 73°
2026-04-25 22:31 34.04832 -124.21309 34976 ft 449 kts 73°
2026-04-25 22:32 34.06177 -124.13972 34976 ft 449 kts 73°
2026-04-25 22:32 34.07521 -124.06615 34976 ft 449 kts 73°
2026-04-25 22:33 34.08854 -123.99294 34976 ft 449 kts 73°
2026-04-25 22:33 34.10186 -123.91951 34979 ft 450 kts 73°
2026-04-25 22:34 34.11515 -123.84600 34985 ft 449 kts 73°
2026-04-25 22:34 34.12832 -123.77285 34985 ft 449 kts 73°
2026-04-25 22:35 34.14151 -123.69938 34984 ft 450 kts 73°
2026-04-25 22:35 34.15470 -123.62556 34984 ft 449 kts 73°
2026-04-25 22:36 34.16777 -123.55225 34984 ft 448 kts 73°
2026-04-25 22:36 34.18083 -123.47867 34985 ft 450 kts 73°
2026-04-25 22:37 34.19391 -123.40467 34985 ft 449 kts 73°
2026-04-25 22:37 34.20684 -123.33130 34987 ft 450 kts 74°
2026-04-25 22:38 34.21983 -123.25731 34989 ft 450 kts 74°
2026-04-25 22:38 34.23269 -123.18372 34990 ft 449 kts 74°
2026-04-25 22:39 34.24509 -123.10975 34993 ft 451 kts 78°
2026-04-25 22:39 34.24580 -123.03360 34992 ft 455 kts 89°
2026-04-25 22:40 34.24292 -122.95773 34992 ft 452 kts 89°
2026-04-25 22:40 34.23974 -122.88216 34991 ft 451 kts 90°
2026-04-25 22:41 34.23638 -122.80685 34992 ft 451 kts 90°
2026-04-25 22:41 34.23296 -122.73164 34991 ft 451 kts 90°
2026-04-25 22:42 34.22944 -122.65565 34990 ft 451 kts 90°
2026-04-25 22:42 34.22589 -122.58013 34991 ft 451 kts 90°
2026-04-25 22:43 34.22230 -122.50482 34987 ft 451 kts 90°
2026-04-25 22:43 34.21865 -122.42934 34991 ft 452 kts 90°
2026-04-25 22:44 34.21496 -122.35382 34988 ft 451 kts 90°
2026-04-25 22:44 34.21122 -122.27821 34994 ft 451 kts 91°
2026-04-25 22:45 34.20743 -122.20267 34994 ft 452 kts 91°
2026-04-25 22:45 34.20360 -122.12714 34991 ft 451 kts 91°
2026-04-25 22:46 34.19973 -122.05180 34994 ft 451 kts 91°
2026-04-25 22:46 34.19582 -121.97652 34992 ft 451 kts 91°
2026-04-25 22:47 34.19183 -121.90059 34994 ft 452 kts 91°
2026-04-25 22:47 34.18782 -121.82529 34991 ft 451 kts 91°
2026-04-25 22:48 34.18376 -121.74984 34991 ft 451 kts 91°
2026-04-25 22:48 34.17966 -121.67446 34989 ft 451 kts 91°
2026-04-25 22:49 34.17550 -121.59893 34989 ft 451 kts 91°
2026-04-25 22:49 34.17130 -121.52342 34990 ft 452 kts 91°
2026-04-25 22:50 34.16706 -121.44815 34992 ft 452 kts 91°
2026-04-25 22:50 34.16273 -121.37212 34988 ft 451 kts 91°
2026-04-25 22:51 34.15839 -121.29676 34992 ft 452 kts 91°
2026-04-25 22:51 34.15402 -121.22150 34994 ft 451 kts 91°
2026-04-25 22:52 34.14963 -121.14638 34994 ft 448 kts 92°
2026-04-25 22:52 34.14595 -121.08398 34993 ft 447 kts 94°
2026-04-25 22:53 34.14074 -120.99616 34990 ft 455 kts 94°
2026-04-25 22:53 34.14441 -120.91936 34993 ft 464 kts 86°
2026-04-25 22:54 34.15059 -120.84272 34994 ft 461 kts 86°
2026-04-25 22:54 34.15680 -120.76569 34702 ft 456 kts 86°
2026-04-25 22:55 34.15989 -120.72721 34168 ft 466 kts 86°
2026-04-25 22:55 34.16297 -120.68895 34148 ft 449 kts 86°
2026-04-25 22:55 34.16594 -120.65193 33817 ft 441 kts 86°
2026-04-25 22:55 34.16886 -120.61500 32899 ft 446 kts 86°
2026-04-25 22:56 34.17180 -120.57787 32123 ft 446 kts 86°
2026-04-25 22:56 34.17471 -120.54102 31341 ft 447 kts 86°
2026-04-25 22:56 34.17764 -120.50381 30506 ft 448 kts 86°
2026-04-25 22:56 34.18057 -120.46668 29712 ft 440 kts 85°
2026-04-25 22:57 34.18347 -120.43007 29042 ft 441 kts 85°
2026-04-25 22:57 34.18635 -120.39295 28437 ft 442 kts 85°
2026-04-25 22:57 34.18916 -120.35641 27878 ft 436 kts 85°
2026-04-25 22:57 34.19192 -120.32004 27368 ft 435 kts 87°
2026-04-25 22:58 34.19353 -120.28381 26848 ft 431 kts 89°
2026-04-25 22:58 34.19482 -120.24835 26354 ft 425 kts 89°
2026-04-25 22:58 34.19615 -120.21278 25900 ft 420 kts 89°
2026-04-25 22:58 34.19746 -120.17760 25447 ft 419 kts 89°
2026-04-25 22:59 34.19877 -120.14255 24950 ft 416 kts 88°
2026-04-25 22:59 34.20006 -120.10805 24515 ft 406 kts 88°
2026-04-25 22:59 34.20129 -120.07521 24457 ft 384 kts 89°
2026-04-25 22:59 34.20158 -120.04257 24352 ft 393 kts 92°
2026-04-25 23:00 34.20104 -120.00972 23831 ft 393 kts 92°
2026-04-25 23:00 34.20058 -119.97694 23308 ft 389 kts 91°
2026-04-25 23:00 34.20015 -119.94486 22800 ft 385 kts 91°
2026-04-25 23:00 34.19971 -119.91249 22294 ft 381 kts 91°
2026-04-25 23:01 34.19928 -119.88104 21808 ft 376 kts 91°
2026-04-25 23:01 34.19886 -119.84993 21318 ft 364 kts 91°
2026-04-25 23:01 34.19843 -119.81937 20865 ft 367 kts 91°
2026-04-25 23:01 34.19799 -119.78861 20409 ft 365 kts 91°
2026-04-25 23:02 34.19756 -119.75866 19951 ft 354 kts 91°
2026-04-25 23:02 34.19713 -119.72884 19408 ft 355 kts 91°
2026-04-25 23:02 34.19669 -119.69941 18846 ft 353 kts 91°
2026-04-25 23:02 34.19625 -119.67001 18241 ft 348 kts 91°
2026-04-25 23:03 34.19581 -119.64094 17638 ft 345 kts 91°
2026-04-25 23:03 34.19536 -119.61233 17039 ft 342 kts 91°
2026-04-25 23:03 34.19491 -119.58367 16432 ft 338 kts 91°
2026-04-25 23:03 34.19446 -119.55563 15833 ft 335 kts 91°
2026-04-25 23:04 34.19401 -119.52800 15237 ft 332 kts 91°
2026-04-25 23:04 34.19371 -119.50925 14949 ft 332 kts 90°
2026-04-25 23:04 34.19310 -119.47252 14915 ft 330 kts 90°
2026-04-25 23:04 34.19263 -119.44463 14414 ft 328 kts 90°
2026-04-25 23:05 34.19216 -119.41748 14059 ft 323 kts 90°
2026-04-25 23:05 34.19170 -119.39056 13808 ft 325 kts 90°
2026-04-25 23:05 34.19122 -119.36346 13555 ft 323 kts 90°
2026-04-25 23:05 34.19078 -119.33657 13303 ft 316 kts 91°
2026-04-25 23:06 34.19036 -119.31071 13058 ft 306 kts 91°
2026-04-25 23:06 34.18996 -119.28557 12808 ft 299 kts 91°
2026-04-25 23:06 34.18956 -119.26109 12559 ft 293 kts 90°
2026-04-25 23:06 34.18914 -119.23645 12303 ft 287 kts 90°
2026-04-25 23:07 34.18875 -119.21294 12055 ft 281 kts 90°
2026-04-25 23:07 34.18835 -119.18959 11803 ft 276 kts 89°
2026-04-25 23:07 34.18801 -119.16644 11551 ft 273 kts 91°
2026-04-25 23:07 34.18758 -119.14329 11375 ft 278 kts 91°
2026-04-25 23:08 34.18715 -119.11980 11385 ft 281 kts 91°
2026-04-25 23:08 34.18673 -119.09655 11311 ft 280 kts 91°
2026-04-25 23:08 34.18612 -119.07293 11069 ft 278 kts 97°
2026-04-25 23:08 34.18062 -119.05091 10995 ft 275 kts 113°
2026-04-25 23:09 34.17266 -119.02992 10992 ft 278 kts 113°
2026-04-25 23:09 34.16452 -119.00844 10988 ft 277 kts 114°
2026-04-25 23:09 34.15650 -118.98759 10990 ft 276 kts 114°
2026-04-25 23:09 34.14838 -118.96665 10991 ft 275 kts 114°
2026-04-25 23:10 34.14027 -118.94582 10991 ft 275 kts 114°
2026-04-25 23:10 34.13205 -118.92474 10992 ft 274 kts 115°
2026-04-25 23:10 34.12400 -118.90415 10993 ft 274 kts 115°
2026-04-25 23:10 34.11587 -118.88338 10994 ft 273 kts 115°
2026-04-25 23:11 34.10778 -118.86273 10995 ft 273 kts 115°
2026-04-25 23:11 34.09972 -118.84217 10995 ft 272 kts 115°
2026-04-25 23:11 34.09164 -118.82159 10996 ft 272 kts 116°
2026-04-25 23:11 34.08378 -118.80156 10839 ft 277 kts 116°
2026-04-25 23:12 34.07547 -118.78038 10388 ft 279 kts 116°
2026-04-25 23:12 34.06732 -118.75963 10297 ft 267 kts 117°
2026-04-25 23:12 34.05950 -118.73971 10197 ft 263 kts 117°
2026-04-25 23:12 34.05179 -118.72005 9949 ft 261 kts 117°
2026-04-25 23:13 34.04513 -118.70327 9732 ft 261 kts 113°
2026-04-25 23:13 34.03745 -118.68372 9500 ft 260 kts 112°
2026-04-25 23:13 34.03051 -118.66351 9274 ft 259 kts 101°
2026-04-25 23:13 34.02780 -118.64218 8977 ft 259 kts 94°
2026-04-25 23:14 34.02575 -118.62077 8637 ft 259 kts 94°
2026-04-25 23:14 34.02364 -118.59907 8305 ft 258 kts 94°
2026-04-25 23:14 34.02159 -118.57777 7988 ft 259 kts 94°
2026-04-25 23:14 34.01952 -118.55599 7670 ft 260 kts 94°
2026-04-25 23:15 34.01748 -118.53451 7483 ft 255 kts 93°
2026-04-25 23:15 34.01551 -118.51378 7471 ft 242 kts 93°
2026-04-25 23:15 34.01372 -118.49348 7126 ft 248 kts 99°
2026-04-25 23:15 34.01174 -118.47281 6773 ft 248 kts 99°
2026-04-25 23:16 34.01143 -118.45225 6403 ft 249 kts 84°
2026-04-25 23:16 34.01472 -118.43188 6030 ft 246 kts 81°
2026-04-25 23:16 34.01812 -118.41180 5648 ft 241 kts 81°
2026-04-25 23:16 34.02140 -118.39237 5270 ft 237 kts 81°
2026-04-25 23:17 34.02473 -118.37286 4891 ft 234 kts 81°
2026-04-25 23:17 34.02787 -118.35352 4534 ft 237 kts 84°
2026-04-25 23:17 34.02990 -118.33396 4156 ft 236 kts 87°
2026-04-25 23:17 34.03177 -118.31445 3771 ft 231 kts 86°
2026-04-25 23:18 34.03350 -118.29555 3393 ft 227 kts 89°
2026-04-25 23:18 34.03449 -118.27672 3073 ft 227 kts 89°
2026-04-25 23:18 34.03441 -118.25785 2824 ft 222 kts 107°
2026-04-25 23:18 34.02736 -118.24213 2637 ft 211 kts 140°
2026-04-25 23:19 34.01550 -118.23216 2599 ft 209 kts 152°
2026-04-25 23:19 34.00297 -118.22298 2591 ft 211 kts 152°
2026-04-25 23:19 33.98974 -118.21586 2578 ft 207 kts 174°
2026-04-25 23:19 33.97634 -118.21836 2588 ft 189 kts 210°
2026-04-25 23:20 33.96729 -118.22874 2590 ft 175 kts 231°
2026-04-25 23:20 33.96029 -118.24009 2523 ft 167 kts 232°
2026-04-25 23:20 33.95345 -118.25113 2465 ft 158 kts 232°
2026-04-25 23:20 33.94676 -118.26181 2504 ft 164 kts 232°
2026-04-25 23:21 33.93999 -118.27276 2481 ft 162 kts 240°
2026-04-25 23:21 33.93923 -118.28660 2084 ft 183 kts 283°
2026-04-25 23:21 33.94274 -118.30060 1960 ft 169 kts 282°
2026-04-25 23:21 33.94419 -118.31442 1586 ft 167 kts 265°
2026-04-25 23:22 33.94291 -118.32757 1353 ft 146 kts 259°
2026-04-25 23:22 33.94147 -118.33908 1053 ft 133 kts 263°
2026-04-25 23:22 33.94060 -118.34956 771 ft 122 kts 263°
2026-04-25 23:23 33.93867 -118.36946 398 ft 125 kts 263°
2026-04-25 23:23 33.93762 -118.38007 228 ft 128 kts 262°
2026-04-25 23:23 33.93652 -118.39040 114 ft 118 kts 262°
2026-04-25 23:23 33.93568 -118.39883 118 ft 68 kts 264°
2026-04-25 23:24 33.93585 -118.40251 123 ft 31 kts 288°
2026-04-25 23:24 33.93621 -118.40485 126 ft 25 kts 265°
2026-04-25 23:24 33.93603 -118.40679 130 ft 21 kts 264°
2026-04-25 23:24 33.93594 -118.40804 130 ft 8 kts 277°
2026-04-25 23:25 33.93611 -118.40859 130 ft 6 kts 303°
2026-04-25 23:25 33.93679 -118.40902 130 ft 15 kts 349°
2026-04-25 23:25 33.93777 -118.40887 130 ft 11 kts 56°
2026-04-25 23:25 33.93780 -118.40878 130 ft 0 kts 65°
2026-04-25 23:26 33.93797 -118.40806 130 ft 10 kts 79°
2026-04-25 23:26 33.93807 -118.40725 130 ft 9 kts 84°
2026-04-25 23:26 33.93817 -118.40614 129 ft 18 kts 85°
2026-04-25 23:26 33.93832 -118.40441 125 ft 21 kts 83°
2026-04-25 23:27 33.93852 -118.40266 123 ft 21 kts 83°
2026-04-25 23:27 33.93869 -118.40098 122 ft 18 kts 83°
2026-04-25 23:27 33.93909 -118.40054 121 ft 7 kts 353°
2026-04-25 23:27 33.93990 -118.40066 121 ft 15 kts 353°
2026-04-25 23:28 33.94112 -118.40086 121 ft 16 kts 353°
2026-04-25 23:28 33.94180 -118.40091 122 ft 5 kts 20°
2026-04-25 23:28 33.94195 -118.40057 121 ft 5 kts 70°
2026-04-25 23:28 33.94202 -118.40033 120 ft 0 kts 71°